Regional Weather Roundup
Issued by NWS

Home | Current Version | Previous Version | Text Only | Print | Product List | Glossary On
Versions: 1 2 3 4 5 6 7 8 9 10 11 12 13 14 15 16 17 18 19 20 21 22 23 24 25 26 27
000
ASUS44 KBMX 262210
RWRAL

ALABAMA REGIONAL WEATHER ROUNDUP
NATIONAL WEATHER SERVICE BIRMINGHAM AL
500 PM CDT TUE SEP 26 2017

NOTE: "FAIR" INDICATES FEW OR NO CLOUDS BELOW 12,000 FEET
WITH NO SIGNIFICANT WEATHER AND/OR OBSTRUCTIONS TO VISIBILITY.

THE REMARK "TC" DENOTES TEMPERATURE IN DEGREES CELSIUS.

ALZ001>011-014-016>018-020-262300-
NORTH ALABAMA

CITY           SKY/WX    TMP DP  RH WIND       PRES   REMARKS
MUSCLE SHOALS  MOSUNNY   89  62  40 SE5       29.94S
HUNTSVILLE     MOSUNNY   90  65  43 VRB5      29.93S HX  92
DECATUR        SUNNY     88  65  46 SW3       29.93F HX  90
HALEYVILLE     NOT AVBL
GADSDEN        SUNNY     86  67  52 N8        29.93S
$$

ALZ012-013-022-023-030>036-040>044-262300-
WEST CENTRAL ALABAMA

CITY           SKY/WX    TMP DP  RH WIND       PRES   REMARKS
TUSCALOOSA     SUNNY     90  63  40 NE7       29.90F HX  91
DEMOPOLIS        N/A     89  62  39 N8        29.89F
$$

ALZ015-024>026-033>036-041>044-262300-
CENTRAL ALABAMA

CITY           SKY/WX    TMP DP  RH WIND       PRES   REMARKS
BIRMINGHAM     MOSUNNY   85  61  44 N6        29.95S
MONTGOMERY     SUNNY     91  59  33 N8        29.89F HX  90
SHELBY CO ARPT SUNNY     87  64  46 VRB5      29.93S
MAXWELL AFB    SUNNY     89  63  41 N5        29.89S
GREENVILLE     FAIR      88  62  41 NE6       29.89F
SELMA          FAIR      86  63  45 CALM      29.89F
PRATTVILLE     FAIR      87  63  44 NE3       29.89S
BESSEMER       FAIR      86  64  47 E3        29.94S
TALLADEGA      FAIR      86  63  45 N6        29.93S
PELL CITY      CLEAR     86  66  51 NE5       29.93F
MARION         FAIR      88  64  45 N5        29.89S
SYLACAUGA      FAIR      86  65  49 CALM      29.93S
$$

ALZ019-021-028-029-037-038-045>048-262300-
EAST CENTRAL ALABAMA

CITY           SKY/WX    TMP DP  RH WIND       PRES   REMARKS
ANNISTON       MOSUNNY   87  62  43 N8        29.93S
ALEXANDER CITY SUNNY     85  64  48 NE6       29.93S
AUBURN         NOT AVBL
$$

ALZ051>064-262300-
SOUTHWEST ALABAMA

CITY           SKY/WX    TMP DP  RH WIND       PRES   REMARKS
MOBILE         CLOUDY    86  72  62 W5        29.87F HX  92
BROOKLEY FIELD SUNNY     86  76  71 S8        29.87F HX  96
EVERGREEN      SUNNY     89  65  44 NE7       29.88F HX  91
$$

ALZ049-050-065>069-262300-
SOUTHEAST ALABAMA

CITY           SKY/WX    TMP DP  RH WIND       PRES   REMARKS
DOTHAN         SUNNY     90  65  43 N7        29.92S HX  92
OZARK          SUNNY     88  65  45 NE9       29.88F
TROY           SUNNY     87  65  47 N8        29.90F
EUFAULA        FAIR      89  65  44 CALM      29.88S HX  91
$$




USA.gov is the U.S. government's official web portal to all federal, state and local government web resources and services.